This is the latest recevied weather packets stored in our database for station/object WB4MOZ-3. If no packets are shown the sender has not sent any weather packets the latest 10 day(s).
| Time | Temp. | Humidity | Pressure | Rain* | Wind** | Luminosity | Snow |
|---|---|---|---|---|---|---|---|
| 1778156379 | 26.11° C | 90% | 1015.6 hPa | 0 mm | - | - | - |
| 1778156080 | 26.11° C | 91% | 1015.5 hPa | 0 mm | - | - | - |
| 1778155779 | 26.11° C | 93% | 1015.6 hPa | 0 mm | - | - | - |
| 1778155480 | 25.56° C | 95% | 1015.6 hPa | 0 mm | - | - | - |
| 1778155179 | 25.56° C | 96% | 1015.5 hPa | 0 mm | - | - | - |
| 1778154880 | 25° C | 97% | 1015.5 hPa | 0 mm | - | - | - |
| 1778154580 | 25° C | 98% | 1015.4 hPa | 0 mm | - | - | - |
| 1778154279 | 24.44° C | 99% | 1015.5 hPa | 0 mm | - | - | - |
| 1778153379 | 22.78° C | 99% | 1015.1 hPa | 0 mm | - | - | - |
| 1778153080 | 22.22° C | 99% | 1015.1 hPa | 0 mm | - | - | - |
| 1778152779 | 22.22° C | 99% | 1015.1 hPa | 0 mm | - | - | - |
| 1778151879 | 21.67° C | 99% | 1014.7 hPa | 0 mm | - | - | - |
| 1778151579 | 21.67° C | 99% | 1014.6 hPa | 0 mm | - | - | - |
| 1778151279 | 21.67° C | 99% | 1014.4 hPa | 0 mm | - | - | - |
| 1778151220 | 22.22° C | 99% | 1014.3 hPa | 0 mm | - | - | - |
| 1778150979 | 22.22° C | 99% | 1014.3 hPa | 0 mm | - | - | - |
| 1778150697 | 21.67° C | 99% | 1014.1 hPa | 0 mm | - | - | - |
| 1778150380 | 21.67° C | 99% | 1014.1 hPa | 0 mm | - | - | - |
| 1778150079 | 21.67° C | 99% | 1014.1 hPa | 0 mm | - | - | - |
| 1778149779 | 21.67° C | 99% | 1014 hPa | 0 mm | - | - | - |
| 1778149180 | 21.67° C | 99% | 1013.9 hPa | 0 mm | - | - | - |
| 1778148879 | 21.67° C | 98% | 1013.9 hPa | 0 mm | - | - | - |
| 1778148579 | 22.22° C | 98% | 1013.8 hPa | 0 mm | - | - | - |
| 1778148279 | 22.22° C | 98% | 1013.7 hPa | 0 mm | - | - | - |
| 1778147980 | 22.22° C | 98% | 1013.6 hPa | 0 mm | - | - | - |
* Rain latest hour (hover to see other rain measurements)
** Current wind speed in m/s (hover to see current wind gust speed)